Regional Weather Roundup
Issued by NWS

Home | Current Version | Previous Version | Graphics & Text | Print | Product List | Glossary On
Versions: 1 2 3 4 5 6 7 8 9 10 11 12 13 14 15 16 17 18 19 20 21 22 23 24 25 26 27 28 29 30 31 32 33 34 35 36 37 38 39 40 41 42 43 44 45 46 47 48 49 50
000
ASUS44 KMEG 030210
RWRTN
TENNESSEE HOURLY STATE WEATHER ROUNDUP
NATIONAL WEATHER SERVICE MEMPHIS TN
900 PM CDT SAT MAY 02 2015

TNZ002-004-019-021-049-052-054-088>092-030300-
WEST TENNESSEE

CITY           SKY/WX    TMP DP  RH WIND       PRES   REMARKS
MEMPHIS INTL   CLEAR     67  46  47 S5        30.05R
NWS MEMPHIS      N/A     62 N/A N/A MISG        N/A
JACKSON        CLEAR     58  51  78 CALM      30.06R
DYERSBURG      CLEAR     66  39  37 SE3       30.06S
PARIS          CLEAR     57  48  72 CALM      30.07S
$$

TNZ008-025-027-028-033-062-065-066-030300-
NORTH MIDDLE TENNESSEE

CITY           SKY/WX    TMP DP  RH WIND       PRES   REMARKS
NASHVILLE      MOCLDY    66  47  50 CALM      30.08R
CLARKSVILLE    PTCLDY    65  50  58 W3        30.07R
SMYRNA         PTCLDY    60  51  72 CALM      30.09R
COOKEVILLE     CLEAR     52  48  87 CALM      30.09R
CROSSVILLE     CLEAR     58  41  53 CALM      30.12R
$$

TNZ061-075-076-078-094-096-097-030300-
SOUTH MIDDLE TENNESSEE

CITY           SKY/WX    TMP DP  RH WIND       PRES   REMARKS
MCMINNVILLE    CLEAR     57  46  67 CALM      30.10R
COLUMBIA       CLEAR     61  52  72 SW3       30.07R
SHELBYVILLE    CLEAR     57  54  88 CALM      30.09R
$$

TNZ017-018-042-046-047-030300-
NORTHEAST TENNESSEE

CITY           SKY/WX    TMP DP  RH WIND       PRES   REMARKS
TRI CITIES     PTCLDY    53  42  66 N3        30.11R
ELIZABETHTON   CLEAR     48  39  71 CALM      30.13R
$$

TNZ012-013-036-069-073-074-030300-
CENTRAL EAST TENNESSEE

CITY           SKY/WX    TMP DP  RH WIND       PRES   REMARKS
KNOXVILLE      CLEAR     64  44  48 CALM      30.09R
OAK RIDGE      CLEAR     60  48  64 CALM      30.11R
GATLINBURG     CLEAR     57  45  62 CALM      30.09R
MORRISTOWN     CLEAR     61  46  59 CALM      30.11R
$$

TNZ083-085-099-030300-
SOUTHEAST TENNESSEE

CITY           SKY/WX    TMP DP  RH WIND       PRES   REMARKS
CHATTANOOGA    PTCLDY    64  50  60 CALM      30.09R
$$

SKY/WX REPORTED AS FAIR MEANS FEW OR NO CLOUDS BELOW
12 THOUSAND FEET.




USA.gov is the U.S. government's official web portal to all federal, state and local government web resources and services.